Fort Eustis, VA

2:58 PM EST on November 20, 2019 (GMT -0500)
Felker Army Air Field

Weather History for KFAF - September, 2019

Change the Weather History Date:

Monday, September 2, 2019

  Actual Average Record
Temperature  
Mean Temperature 80 °F -  
Max Temperature 88 °F 81 °F 96 °F (2014)
Min Temperature 72 °F 68 °F 61 °F (2008)
Cooling Degree Days 14    
Growing Degree Days 30 (Base 50)    
Moisture  
Dew Point 71 °F    
Average Humidity 78    
Maximum Humidity 94    
Minimum Humidity 54    
Precipitation  
Precipitation 0.00 in - - ()
Sea Level Pressure  
Sea Level Pressure 30.05 in    
Wind  
Wind Speed 3 mph ()    
Max Wind Speed 8 mph    
Max Gust Speed -    
Visibility 9.9 miles    
Events      
Averages and records for this station are not official NWS values.
T = Trace of Precipitation, MM = Missing Value Source: Averaged Metar Reports

Daily Weather History Graph

Daily Weather History Graph

Search for Another Location

Airport or City:

Astronomy

Sep. 02, 2019 Rise Set
Actual Time 6:37 AM EDT 7:33 PM EDT
Civil Twilight 6:11 AM EDT 8:00 PM EDT
Nautical Twilight 5:39 AM EDT 8:31 PM EDT
Astronomical Twilight 5:06 AM EDT 9:04 PM EDT
Moon 10:13 AM EDT (9/2) 9:59 PM EDT (9/2)
Length of Visible Light 13h 49m
Length of Day
12h 56m
Waxing Crescent, 15% of the Moon is Illuminated
Sep 2
Waxing Crescent
Sep 5
First Quarter
Sep 14
Full
Sep 21
Last Quarter
Sep 28
New

Hourly Weather History & Observations

Time (EDT) Temp. Heat Index Dew Point Humidity Pressure Visibility Wind Dir Wind Speed Gust Speed Precip Events Conditions
12:36 AM 77.0 °F - 71.6 °F 83% 30.14 in 10.0 mi East 3.5 mph - N/A   Mostly Cloudy
12:56 AM 76.5 °F - 72.0 °F 86% 30.14 in 10.0 mi East 4.6 mph - N/A   Overcast
1:26 AM 77.0 °F - 71.6 °F 83% 30.12 in 10.0 mi East 4.6 mph - N/A   Scattered Clouds
1:56 AM 76.3 °F - 71.8 °F 86% 30.12 in 10.0 mi ESE 4.6 mph - N/A   Clear
2:56 AM 75.2 °F - 71.4 °F 88% 30.10 in 10.0 mi SE 3.5 mph - N/A   Mostly Cloudy
3:56 AM 75.7 °F - 72.0 °F 88% 30.08 in 10.0 mi Calm Calm - N/A   Scattered Clouds
4:56 AM 74.1 °F - 71.2 °F 91% 30.08 in 10.0 mi Calm Calm - N/A   Partly Cloudy
5:56 AM 73.4 °F - 71.2 °F 93% 30.08 in 8.0 mi Calm Calm - N/A   Scattered Clouds
6:56 AM 72.9 °F - 70.7 °F 93% 30.08 in 10.0 mi Calm Calm - N/A   Scattered Clouds
7:56 AM 74.5 °F - 72.3 °F 93% 30.08 in 10.0 mi Calm Calm - N/A   Clear
8:56 AM 77.4 °F - 74.1 °F 90% 30.09 in 10.0 mi Calm Calm - N/A   Clear
8:58 AM 77.0 °F - 75.2 °F 94% 30.09 in 10.0 mi Calm Calm - N/A   Light Drizzle
8:59 AM 77.0 °F - 75.2 °F 94% 30.09 in 10.0 mi Calm Calm - N/A   Partly Cloudy
9:06 AM 77.0 °F - 73.4 °F 89% 30.09 in 10.0 mi Calm Calm - N/A   Light Drizzle
9:22 AM 78.8 °F - 75.2 °F 89% 30.09 in 10.0 mi Calm Calm - N/A   Partly Cloudy
9:56 AM 81.0 °F 85.6 °F 72.7 °F 76% 30.09 in 10.0 mi SE 3.5 mph - 0.00 in   Scattered Clouds
10:56 AM 83.1 °F 87.6 °F 70.5 °F 66% 30.07 in 10.0 mi SSE 4.6 mph - N/A   Clear
11:56 AM 84.2 °F 87.3 °F 68.2 °F 58% 30.06 in 10.0 mi SSE 5.8 mph - N/A   Clear
12:56 PM 85.6 °F 89.7 °F 69.1 °F 58% 30.04 in 10.0 mi West 4.6 mph - N/A   Clear
1:56 PM 86.5 °F 90.7 °F 68.9 °F 56% 30.02 in 10.0 mi SSE 5.8 mph - N/A   Clear
2:56 PM 87.3 °F 91.2 °F 68.5 °F 54% 29.99 in 10.0 mi SW 4.6 mph - N/A   Clear
3:56 PM 87.4 °F 91.5 °F 68.7 °F 54% 29.98 in 10.0 mi SSE 6.9 mph - N/A   Clear
4:56 PM 86.9 °F 91.0 °F 68.7 °F 55% 29.96 in 10.0 mi South 3.5 mph - N/A   Clear
5:56 PM 86.5 °F 90.0 °F 68.4 °F 54% 29.95 in 10.0 mi SSE 6.9 mph - N/A   Clear
6:56 PM 84.2 °F 88.1 °F 69.3 °F 61% 29.95 in 10.0 mi SE 3.5 mph - N/A   Clear
7:56 PM 80.2 °F 83.6 °F 70.3 °F 72% 29.96 in 10.0 mi SE 5.8 mph - N/A   Clear
8:56 PM 80.1 °F 84.2 °F 72.9 °F 79% 29.97 in 10.0 mi SSE 6.9 mph - N/A   Clear
9:56 PM 79.2 °F - 72.3 °F 79% 29.98 in 10.0 mi South 8.1 mph - N/A   Clear
10:56 PM 78.1 °F - 71.8 °F 81% 29.99 in 10.0 mi South 4.6 mph - N/A   Clear
11:56 PM 77.4 °F - 71.4 °F 82% 29.98 in 10.0 mi South 5.8 mph - N/A   Clear